Location: Arran
(51.9410°N, 101.7372°W)
Time: 22:25:19
(UTC+00:00)

AO-85 - Visible Passes

Search period start: 29 November 2023 00:00
Search period end: 09 December 2023 00:00
Orbit: 516 x 753 km, 64.8° (Epoch: 04 January)

Date Brightness Start Highest point End Pass type
(mag) Time Alt. Az. Time Alt. Az. Time Alt. Az.
29 Nov ? 00:24:36 10° NW 00:27:18 17° NNW 00:29:21 13° NNE visible
29 Nov ? 02:06:08 10° NNW 02:06:38 12° NNW 02:06:38 12° NNW visible
30 Nov ? 00:45:14 10° NW 00:47:43 15° N 00:48:39 14° NNE visible
30 Nov ? 23:23:31 10° WNW 23:26:32 19° NNW 23:29:41 10° NNE visible
01 Dec ? 01:05:35 10° NNW 01:07:57 15° N 01:07:57 15° N visible
01 Dec ? 23:44:14 10° NW 23:46:53 16° N 23:49:38 10° NNE visible
02 Dec ? 01:25:36 10° NNW 01:27:15 16° N 01:27:15 16° N visible
03 Dec ? 00:04:48 10° NW 00:07:16 15° N 00:09:16 12° NNE visible
03 Dec ? 01:45:25 10° NNW 01:46:34 15° NNW 01:46:34 15° NNW visible
04 Dec ? 00:25:03 10° NNW 00:27:41 16° N 00:28:35 15° NNE visible
04 Dec ? 02:05:08 10° NNW 02:05:53 14° NNW 02:05:53 14° NNW visible
05 Dec ? 00:45:01 10° NNW 00:47:55 18° NNE 00:47:55 18° NNE visible
05 Dec ? 02:24:49 10° NW 02:25:13 12° NNW 02:25:13 12° NNW visible
05 Dec ? 23:24:17 10° NW 23:26:47 15° N 23:29:22 10° NE visible
06 Dec ? 01:04:47 10° NNW 01:07:17 21° N 01:07:17 21° N visible
06 Dec ? 02:44:31 10° NW 02:44:34 10° NW 02:44:34 10° NW visible
06 Dec ? 23:44:27 10° NNW 23:47:09 16° N 23:49:23 12° NE visible
07 Dec ? 01:24:27 10° NNW 01:26:41 24° N 01:26:41 24° N visible
08 Dec ? 00:04:21 10° NNW 00:07:28 19° NNE 00:08:50 17° NE visible
08 Dec ? 01:44:08 10° NW 01:46:08 25° NNW 01:46:08 25° NNW visible
